Regional Weather Roundup
Issued by NWS

Home | Current Version | Previous Version | Graphics & Text | Print | Product List | Glossary On
Versions: 1 2 3 4 5 6 7 8 9 10 11 12 13 14 15 16 17 18 19 20 21 22 23 24 25 26 27 28 29 30 31 32 33 34 35 36 37 38 39 40 41 42 43 44 45 46 47 48 49 50
000
ASUS43 KLOT 281608
RWRIL

ILLINOIS REGIONAL WEATHER ROUNDUP
NATIONAL WEATHER SERVICE CHICAGO/ROMEOVILLE IL
1100 AM CDT TUE MAR 28 2017

NOTE: "FAIR" INDICATES FEW OR NO CLOUDS BELOW 12,000 FEET WITH NO
SIGNIFICANT WEATHER AND/OR OBSTRUCTIONS TO VISIBILITY.

* THESE STATIONS ARE NOT UNDER NWS QUALITY CONTROL. THEY ALSO MAY NOT
  REPORT WEATHER SUCH AS PRECIPITATION OR FOG.

ILZ001-002-007-009-015-016-024-281700-
NORTHWEST ILLINOIS

CITY           SKY/WX    TMP DP  RH WIND       PRES   REMARKS
MOLINE         CLOUDY    48  45  89 E9        30.12R FOG
STERLING*      CLOUDY    48  42  80 NE9       30.13S
SAVANNA*       CLOUDY    47  41  80 NE10      30.13S
$$

ILZ003-004-008-010-011-017-018-281700-
NORTH CENTRAL ILLINOIS

CITY           SKY/WX    TMP DP  RH WIND       PRES   REMARKS
ROCKFORD       CLOUDY    45  37  73 VRB7      30.15S
FREEPORT*      CLOUDY    44  39  83 NE13      30.15S
ROCHELLE*      CLOUDY    43  38  83 NE14      30.14S
DE KALB*       CLOUDY    42  39  88 NE7       30.13S
PERU*          CLOUDY    45  40  82 NE8       30.13S
$$

ILZ005-006-012>014-019>023-281700-
NORTHEAST ILLINOIS

CITY           SKY/WX    TMP DP  RH WIND       PRES   REMARKS
CHICAGO-OHARE  CLOUDY    43  38  82 N10       30.12R
CHICAGO-MIDWAY CLOUDY    43  37  79 N13G21    30.13R
AURORA         CLOUDY    46  39  76 NE10      30.12S
LANSING*       CLOUDY    42  39  87 N9        30.13R
JOLIET*        CLOUDY    46  40  77 NE9       30.13R
WAUKEGAN       CLOUDY    42  37  82 NE13      30.13R
DUPAGE AIRPORT CLOUDY    43  39  86 NE7       30.12R
KANKAKEE*      CLOUDY    46  39  76 N10       30.12S
WHEELING       CLOUDY    42  39  89 N12       30.14R
MORRIS*        CLOUDY    46  39  76 CALM      30.11S
ROMEOVILLE*    CLOUDY    43  40  89 NE13      30.12S
NORTHERLY ISL    N/A     40  37  89 MISG        N/A
$$

LMZ740>746-281700-
SOUTHERN LAKE MICHIGAN

STATION/POSITION SKY/WX   TEMP    WIND        PRES    VSBY  WAVE
                          AIR SEA DIR/SP/G                  HT/PER
                          (F)     (DEG/KT/KT) (MB)    (MI)  (FT/S)
HARRISON CRIB              39     350/ 15/ 16   N/A
BURNHAM HARBOR             40     340/ 11/ 14   N/A
CALUMET HARBOR             39     340/ 12/ 17 1019.7R
BURNS HARBOR               39     360/  9/ 13 1020.0R
MICHIGAN CITY              38     360/ 13/ 15   N/A
$$

ILZ025>027-034>036-040-047-049-050-058-095>099-281700-
WEST-CENTRAL ILLINOIS

CITY           SKY/WX    TMP DP  RH WIND       PRES   REMARKS
QUINCY         CLOUDY    52  48  86 NE8       30.09R
GALESBURG*     CLOUDY    47  44  91 E8        30.11S FOG
MACOMB*        CLOUDY    49  47  94 E7        30.13S
JACKSONVILLE*  CLOUDY    51  49  95 NE7       30.10R FOG
PITTSFIELD*    CLOUDY    54  50  86 N5        30.10S
$$

ILZ028>032-037-038-041>044-048-051>054-059>061-281700-
CENTRAL ILLINOIS

CITY           SKY/WX    TMP DP  RH WIND       PRES   REMARKS
PONTIAC        CLOUDY    47  43  87 N6        30.13R
BLOOMINGTON    CLOUDY    46  41  82 N9        30.12R
DECATUR        CLOUDY    51  43  74 NE12      30.10R
PEORIA         CLOUDY    48  43  82 NE8       30.12R
LACON*         CLOUDY    47  41  80 NE8       30.11S
LINCOLN*       CLOUDY    49  44  84 NE8       30.12R
SPRINGFIELD    CLOUDY    52  46  80 NE8       30.10R HAZE
TAYLORVILLE    CLOUDY    54  46  76 NE10      30.09S
$$

ILZ033-039-045-046-055>057-062-063-281700-
EAST-CENTRAL ILLINOIS

CITY           SKY/WX    TMP DP  RH WIND       PRES   REMARKS
CHAMPAIGN      CLOUDY    52  41  66 NE13      30.09R
RANTOUL*       CLOUDY    48  41  78 NE7       30.10R
MATTOON        CLOUDY    54  47  77 N13       30.07R
PARIS*         MOSUNNY   51  46  82 NE9       30.08R
$$

ILZ079-100>102-281700-
SOUTHWEST ILLINOIS

CITY           SKY/WX    TMP DP  RH WIND       PRES   REMARKS
ALTON          CLOUDY    54  48  82 VRB6      30.09S
BELLEVILLE     CLOUDY    55  50  82 NE8       30.08S
CAHOKIA*       CLOUDY    55  49  80 N8        30.09R
SPARTA*        CLOUDY    53  50  90 NE8       30.10R
$$

ILZ064>066-069>071-074>076-080>082-084>086-088>090-092>094-281700-
SOUTH-CENTRAL ILLINOIS

CITY           SKY/WX    TMP DP  RH WIND       PRES   REMARKS
CARBONDALE     CLOUDY    54  51  90 N8        30.08R
CAIRO*         CLOUDY    57  52  84 N7        30.08R
EFFINGHAM*     PTSUNNY   53  48  83 N8        30.09S
MARION         CLOUDY    55  54  94 N9        30.09R
MT. VERNON     CLOUDY    54  48  80 N6        30.08R
CENTRALIA*     CLOUDY    53  48  82 N7        30.08R
SALEM*         CLOUDY    54  47  76 N12       30.08S
METROPOLIS*    CLOUDY    57  52  83 N5        30.07R
$$

ILZ067-068-072-073-078-083-087-091-281700-
SOUTHEAST ILLINOIS

CITY           SKY/WX    TMP DP  RH WIND       PRES   REMARKS
LAWRENCEVILLE  CLOUDY    56  50  80 N10       30.06R
FLORA*         CLOUDY    55  48  77 N9        30.08R
FAIRFIELD*     CLOUDY    55  49  80 N6        30.06S
HARRISBURG*    CLOUDY    55  51  86 N8        30.07S
ROBINSON*      MOSUNNY   52  47  84 NW7       30.07S
CARMI*         CLOUDY    55  50  86 NW8       30.06R
$$

ABBREVIATIONS USED IN REMARKS
   TC - TEMPERATURE IN CELSIUS
  WCI - WIND CHILL INDEX
   HX - HEAT INDEX
  VSB - VISIBILITY
$$




USA.gov is the U.S. government's official web portal to all federal, state and local government web resources and services.